Miscellaneous Local Product
Issued by NWS Hastings, NE

Home | Current Version | Previous Version | Graphics & Text | Print | Product List | Glossary On
Versions: 1 2 3 4 5 6 7 8 9 10 11 12 13 14 15 16 17 18 19 20 21 22 23 24 25 26 27 28 29 30 31 32 33 34 35 36 37 38 39 40 41 42 43 44 45 46 47 48 49 50
000
AXUS43 KGID 222202
MISGRI

GID CWA HOURLY WEATHER ROUNDUP
NATIONAL WEATHER SERVICE HASTINGS NE
500 PM CDT WED MAR 22 2017

NOTE: "FAIR" INDICATES FEW OR NO CLOUDS BELOW 12,000 FEET WITH NO
SIGNIFICANT WEATHER AND/OR OBSTRUCTIONS TO VISIBILITY.

...SOUTH CENTRAL NEBRASKA...

CITY           SKY/WX    TMP DP  RH WIND       PRES   REMARKS
GRAND ISLAND   CLOUDY    56  23  27 SE20G26   30.12F
HASTINGS       CLOUDY    55  21  26 S17       30.12F
KEARNEY        CLOUDY    54  25  32 S18G24    30.10F
ORD            CLOUDY    53  21  28 SE20G28   30.06F
YORK           CLOUDY    55  16  21 SE17G24   30.14F
AURORA         PTSUNNY   57  15  19 SE18G28   30.12F
LEXINGTON      CLOUDY    51  27  39 S17       30.06F
HOLDREGE       CLOUDY    51  25  36 S20G26    30.09S
HEBRON         CLOUDY    56  17  21 SE18      30.14F

...NEBRASKA PANHANDLE...

CITY           SKY/WX    TMP DP  RH WIND       PRES   REMARKS
CHADRON        CLOUDY    66  36  32 S17       29.80F
ALLIANCE       SUNNY     64  35  34 S26G35    29.84F
SCOTTSBLUFF    SUNNY     71  34  25 SE13      29.83S
SIDNEY         CLOUDY    64  35  34 S21       29.89F

...WESTERN AND NORTH CENTRAL NEBRASKA...

CITY           SKY/WX    TMP DP  RH WIND       PRES   REMARKS
VALENTINE      SUNNY     57  32  38 S23G35    29.93F
AINSWORTH      CLOUDY    49  31  48 S25       29.99S
ONEILL         CLOUDY    51  22  32 SE21G30   30.06F
BROKEN BOW     CLOUDY    52  27  38 S22G35    30.04F
IMPERIAL       SUNNY     59  34  39 S23G31    29.96F
NORTH PLATTE   SUNNY     54  30  40 S21G26    30.01F
MCCOOK         CLOUDY    54  33  45 SE18G25   30.02F

...EASTERN NEBRASKA...

CITY           SKY/WX    TMP DP  RH WIND       PRES   REMARKS
NORFOLK        CLOUDY    50  20  30 SE18      30.14F
SO SIOUX CITY  CLOUDY    44  28  53 SE20      30.23F
TEKAMAH        CLOUDY    50  22  33 SE16      30.23F
COLUMBUS       PTSUNNY   52  19  28 SE14G22   30.16F
ALBION         CLOUDY    54  14  20 SE18G26   30.12F
OMAHA EPPLEY   CLOUDY    51  22  31 SE17      30.23F
OFFUTT AFB     CLOUDY    50  24  36 E16       30.23F
MILLARD        CLOUDY    52  26  37 SE15G21   30.23F
LINCOLN        CLOUDY    53  20  27 SE16      30.21F
NEBRASKA CITY  CLOUDY    53  15  22 E16G23    30.22F
BEATRICE       CLOUDY    58  22  24 SE15      30.16F
FALLS CITY     SUNNY     57  26  30 E17       30.20F

...NORTHERN KANSAS...

CITY           SKY/WX    TMP DP  RH WIND       PRES   REMARKS
GOODLAND       CLOUDY    59  37  44 S21       29.97F
HILL CITY      CLOUDY    52  32  46 S17G23    30.08F
NORTON         CLOUDY    54  27  35 SE14G21   30.05
PHILLIPSBURG   CLOUDY    54  27  35 SE14G20   30.09F
HAYS             N/A     55  33  43 SE14      30.08F
RUSSELL        CLOUDY    56  33  42 SE16      30.08F
CONCORDIA      CLOUDY    55  24  30 SE17G24   30.13F
SALINA         CLOUDY    58  31  35 SE14      30.14F
TOPEKA         CLOUDY    57  26  30 E15       30.18F



USA.gov is the U.S. government's official web portal to all federal, state and local government web resources and services.